Wind_Speed
21 22 22 22 21 21 21 22 22 22 22 22 22 22 22 22 21 20 19 19 20 20 18 18 19 18 17 18 18 18 18 18 18 18 18 17 17 17 17 17 17 17 18
23 23 24 24 23 22 22 23 23 23 24 23 24 24 22 23 22 22 22 21 21 20 20 20 20 19 19 19 19 19 19 20 20 19 20 20 19 19 19 19 19 19 19
24 24 24 25 25 24 24 24 24 24 24 24 23 23 23 23 24 24 23 23 22 21 21 21 20 21 21 20 19 20 20 21 21 21 21 22 22 21 21 21 21 21 21
24 24 24 24 25 25 25 25 25 25 25 25 24 24 24 23 24 24 24 24 24 23 23 23 23 22 22 22 22 21 21 22 22 23 23 23 24 24 23 23 23 23 23
25 25 24 25 25 26 27 27 26 25 26 26 25 25 25 25 25 25 25 25 25 25 24 24 25 24 24 23 23 23 23 23 23 24 24 24 25 25 25 25 25 26 26
26 26 25 26 26 26 27 27 28 28 27 27 27 26 26 27 26 26 27 27 28 28 26 26 26 26 25 25 25 26 25 25 25 25 25 25 26 26 26 26 26 27 27
27 27 27 27 27 27 27 28 28 28 29 29 29 28 27 27 27 28 28 28 28 28 27 27 27 27 27 26 27 27 27 28 28 28 27 27 28 28 28 28 28 28 29
28 28 29 29 29 29 30 29 28 29 29 29 30 29 28 28 29 29 29 29 28 27 27 27 28 28 28 28 29 29 28 29 30 30 30 30 30 30 30 30 30 30 30
29 29 29 30 31 31 31 31 30 29 30 30 31 31 31 30 30 30 30 30 30 29 28 29 29 29 29 29 30 30 30 30 32 32 32 32 31 31 31 31 32 32 31
29 29 29 30 31 31 31 30 30 31 31 31 31 32 32 31 31 31 31 30 30 30 30 30 30 31 31 31 30 31 32 32 33 33 32 32 32 32 31 32 32 32 32
29 29 29 30 30 30 30 30 30 30 31 31 31 32 32 32 32 32 32 32 32 31 31 31 31 31 31 31 31 31 32 33 33 34 33 33 33 34 33 32 32 32 33
29 29 29 28 29 29 28 28 29 29 29 30 30 30 31 31 31 32 31 31 32 32 32 32 32 32 32 32 32 32 32 33 33 33 33 34 34 34 34 34 33 33 33
29 28 28 28 28 28 27 27 27 28 27 28 28 28 29 30 30 30 30 30 30 30 30 30 31 32 32 31 32 33 33 33 33 34 35 34 35 34 34 33 33 33 34
28 28 28 28 29 28 27 27 27 26 26 27 27 27 28 28 29 29 29 29 29 29 29 29 30 30 31 31 32 33 34 33 33 34 34 34 34 34 34 34 34 34 34
28 27 27 26 26 26 26 26 26 26 26 26 26 26 27 27 28 28 29 29 29 29 29 29 29 30 30 30 31 33 33 33 33 33 34 34 34 33 34 35 35 35 35
27 27 26 25 25 25 25 25 26 25 25 25 26 26 27 27 28 28 28 29 29 28 29 30 30 30 30 29 29 30 31 31 31 31 32 32 33 33 33 34 35 35 34
27 26 26 25 25 25 25 25 24 24 24 24 24 25 26 26 27 27 28 28 28 28 28 28 28 28 28 28 28 28 28 29 29 30 30 30 31 32 32 33 33 33 33
27 26 26 26 25 25 25 24 24 24 24 23 23 24 25 25 26 26 26 26 26 26 26 26 27 27 27 27 27 27 27 27 28 28 29 29 30 30 30 31 31 31 31
27 26 25 25 24 24 24 25 24 24 23 23 23 23 23 24 24 25 25 25 24 24 24 25 25 26 26 26 26 26 26 26 26 27 28 29 28 28 29 29 30 30 30
24 24 24 23 24 24 23 23 23 22 22 22 22 22 22 22 22 22 22 22 22 22 22 22 23 24 24 25 25 25 25 25 26 27 27 27 28 27 27 28 29 29 29
21 21 21 21 22 21 21 21 21 21 21 20 20 20 20 19 19 18 19 19 20 20 20 20 20 20 21 22 23 23 23 23 23 24 25 25 26 26 26 26 26 26 26
19 19 20 20 19 19 20 20 20 20 19 18 18 18 18 18 17 17 18 17 17 17 17 17 17 18 18 19 19 20 20 20 20 21 22 23 23 23 23 23 24 24 24
19 19 18 18 18 17 17 17 16 16 16 16 16 16 16 15 16 15 15 15 15 15 15 15 15 16 16 16 16 17 17 17 18 18 19 19 20 20 20 20 20 21 22
16 15 15 15 14 14 13 12 12 13 13 13 13 12 12 12 12 11 12 13 12 12 12 12 12 13 13 13 13 14 14 15 15 16 16 17 18 17 17 17 17 17 17
13 13 12 11 11 10 10 10 11 11 10 10 10 9 9 9 8 9 10 10 10 9 9 9 9 10 10 10 10 10 11 11 12 13 14 14 15 15 14 14 14 15 15
12 11 10 9 8 8 8 8 8 7 6 6 6 6 6 6 6 6 7 6 6 6 6 6 6 6 6 7 7 7 8 9 9 10 10 11 12 12 13 13 14 14 15
Wind_Direction
275 272 272 271 272 274 270 268 271 272 272 268 265 266 267 267 266 265 267 265 264 262 262 259 257 258 257 258 257 258 258 259 259 259 260 261 262 264 266 265 262 262 264
274 271 271 272 272 271 273 273 272 273 271 268 268 268 266 264 265 265 265 264 264 263 262 261 259 257 258 258 259 260 260 260 259 259 259 259 261 265 267 267 263 263 264
276 275 272 273 272 272 272 274 275 275 270 268 267 265 265 263 262 263 263 262 263 265 263 261 262 259 260 259 261 262 262 262 260 259 259 259 261 264 267 267 265 265 265
277 276 276 274 272 272 273 274 275 274 270 266 266 264 263 262 260 260 261 262 262 262 262 260 261 261 260 259 260 263 262 262 261 260 259 260 262 264 266 268 265 264 265
281 278 275 274 274 273 273 273 273 273 268 265 264 264 263 263 261 259 259 260 261 262 262 261 259 260 260 260 260 262 263 262 260 259 259 260 262 264 265 266 266 266 266
284 282 278 276 276 275 274 274 273 271 267 263 263 263 264 262 263 262 261 261 261 261 261 262 259 259 259 261 261 262 262 260 259 260 260 261 263 264 266 267 269 269 267
284 282 280 279 278 277 274 274 273 269 266 263 263 263 262 264 264 264 262 262 261 261 261 261 259 258 259 259 260 260 260 260 260 260 261 262 264 265 266 267 268 269 268
283 282 281 280 278 277 275 273 271 268 267 266 264 262 262 262 263 262 263 263 263 263 262 261 260 258 261 260 260 259 258 259 260 261 262 263 264 265 266 268 269 269 268
282 281 279 278 277 276 275 273 271 269 269 267 265 264 262 263 264 263 263 262 262 263 263 261 259 260 262 263 263 259 258 261 260 261 262 264 264 264 266 268 268 268 268
282 281 281 280 279 277 276 274 272 271 271 269 267 265 264 263 264 263 263 262 262 262 262 262 260 261 262 262 263 261 260 262 262 261 262 264 264 264 266 266 267 267 268
284 282 283 282 280 278 276 275 274 273 272 272 270 268 266 265 264 263 263 263 262 261 261 260 260 260 260 261 261 261 260 261 262 261 261 263 266 266 268 268 268 268 268
285 285 284 284 282 280 279 277 274 274 273 272 271 270 267 266 264 263 264 263 262 262 261 261 261 261 261 262 262 261 261 262 262 262 264 265 267 268 269 269 268 269 268
286 286 285 284 283 282 280 279 276 275 274 274 272 270 267 266 265 263 263 262 262 262 262 261 262 263 263 263 262 262 264 264 263 262 263 265 267 267 266 266 267 268 268
287 287 286 285 283 281 281 280 278 276 274 275 272 270 268 266 265 264 263 263 263 263 262 262 263 264 265 266 265 265 265 265 264 263 263 264 266 266 265 266 267 267 268
287 287 288 287 286 283 282 280 278 276 274 274 272 270 268 267 266 265 263 262 263 263 262 261 262 264 265 265 265 265 265 265 264 264 264 264 264 265 266 266 266 266 266
287 288 287 286 285 284 283 282 281 279 276 273 271 269 266 265 266 265 265 264 264 264 263 261 261 263 264 265 265 266 267 265 266 265 264 264 264 264 265 266 265 265 266
288 287 286 285 285 284 283 281 280 280 278 277 274 271 268 266 265 265 266 266 264 263 263 263 263 263 264 264 263 265 265 265 266 266 265 263 262 262 264 264 265 266 266
287 287 286 286 284 282 281 280 280 278 277 276 274 272 270 268 266 265 265 264 264 263 263 263 263 264 265 265 265 266 265 265 265 266 264 262 262 262 263 264 266 266 265
286 286 285 285 283 283 282 280 280 278 276 274 273 272 270 269 267 265 262 262 264 264 265 265 264 264 264 264 264 264 263 263 264 265 265 263 263 264 264 265 266 266 265
287 287 286 284 282 282 282 281 280 278 277 275 273 271 269 269 267 264 263 263 263 264 263 264 265 265 265 264 265 264 264 263 263 263 263 263 264 264 265 265 266 266 266
291 289 288 286 283 282 281 281 281 279 278 275 272 270 269 269 268 265 264 262 263 263 264 264 264 264 263 263 265 266 265 263 262 263 263 264 265 265 265 266 267 267 267
295 293 291 290 287 285 283 283 282 280 278 275 272 270 270 269 266 264 263 263 264 264 263 264 263 262 262 264 265 266 265 265 265 264 265 266 266 266 267 267 267 267 268
298 295 294 292 292 291 289 286 285 283 280 274 273 271 269 266 263 262 261 261 262 263 263 262 261 262 262 263 263 264 266 267 267 267 267 269 268 269 270 270 270 271 270
303 300 298 298 296 295 293 290 291 289 284 277 272 270 265 262 257 257 260 262 264 263 261 260 261 261 258 262 266 269 271 271 271 270 271 271 271 273 275 274 273 273 273
310 307 306 302 300 299 296 292 292 288 285 277 270 265 259 259 259 261 262 260 260 261 261 261 261 262 262 268 272 274 273 273 273 274 274 275 277 276 276 275 275 275 275
314 313 312 311 308 308 306 303 302 295 289 282 274 269 261 261 263 261 261 262 264 262 256 255 257 261 264 271 275 280 281 279 277 277 278 280 281 280 278 278 277 277 278
Height
5872 5871 5870 5870 5869 5869 5868 5868 5868 5868 5867 5867 5866 5866 5866 5867 5867 5867 5867 5867 5868 5868 5868 5868 5869 5869 5869 5870 5870 5871 5871 5872 5872 5872 5873 5873 5873 5873 5874 5874 5874 5874 5874
5866 5866 5865 5865 5864 5864 5863 5863 5862 5862 5862 5862 5861 5861 5861 5861 5862 5862 5862 5863 5863 5863 5864 5864 5864 5864 5865 5866 5866 5866 5867 5867 5868 5868 5868 5869 5869 5870 5870 5870 5870 5870 5870
5861 5860 5859 5859 5858 5858 5858 5857 5857 5856 5856 5856 5856 5856 5856 5856 5856 5856 5857 5857 5858 5858 5858 5859 5859 5860 5860 5861 5861 5861 5862 5862 5863 5863 5864 5864 5865 5865 5865 5865 5865 5865 5865
5855 5854 5853 5853 5853 5852 5852 5852 5851 5850 5850 5850 5850 5850 5850 5850 5850 5850 5850 5851 5852 5852 5853 5853 5854 5855 5855 5856 5856 5856 5857 5857 5858 5858 5859 5859 5860 5860 5860 5860 5860 5860 5860
5848 5847 5847 5847 5846 5846 5845 5845 5845 5844 5844 5844 5844 5843 5843 5844 5844 5844 5845 5845 5846 5846 5847 5847 5848 5849 5850 5850 5851 5851 5852 5852 5852 5853 5853 5854 5854 5854 5854 5854 5855 5855 5855
5842 5841 5841 5840 5839 5839 5838 5838 5837 5837 5837 5837 5837 5837 5837 5837 5837 5838 5838 5838 5839 5840 5840 5841 5842 5842 5843 5844 5845 5845 5846 5846 5846 5847 5847 5848 5848 5848 5848 5848 5848 5848 5848
5836 5835 5834 5833 5832 5832 5831 5831 5830 5830 5830 5830 5830 5830 5830 5830 5830 5830 5831 5832 5832 5833 5834 5834 5835 5836 5836 5837 5838 5838 5839 5840 5840 5841 5841 5842 5842 5842 5842 5842 5842 5841 5841
5830 5829 5827 5826 5825 5825 5824 5823 5822 5822 5822 5822 5822 5822 5823 5824 5823 5823 5824 5824 5825 5825 5827 5827 5828 5829 5829 5830 5831 5831 5832 5833 5833 5834 5834 5834 5835 5835 5835 5835 5834 5834 5834
5822 5821 5820 5818 5817 5816 5815 5815 5814 5813 5814 5813 5814 5814 5815 5816 5816 5816 5816 5817 5817 5818 5819 5820 5821 5821 5822 5823 5824 5824 5825 5825 5826 5826 5827 5826 5827 5827 5827 5827 5826 5826 5826
5815 5813 5811 5810 5809 5808 5807 5806 5805 5805 5805 5805 5804 5805 5806 5807 5808 5808 5809 5809 5810 5810 5812 5812 5813 5814 5815 5815 5816 5817 5817 5818 5818 5819 5819 5819 5818 5818 5818 5818 5818 5817 5817
5807 5805 5803 5802 5800 5799 5798 5797 5797 5796 5796 5796 5796 5796 5797 5798 5799 5800 5800 5801 5802 5803 5803 5804 5805 5806 5807 5807 5808 5809 5809 5809 5810 5810 5810 5810 5810 5810 5810 5809 5809 5809 5809
5799 5797 5795 5794 5792 5791 5790 5789 5788 5788 5788 5788 5788 5788 5788 5789 5790 5791 5792 5792 5793 5794 5795 5796 5797 5797 5798 5799 5800 5800 5800 5801 5801 5801 5801 5801 5801 5801 5801 5800 5800 5800 5800
5791 5789 5787 5786 5785 5783 5782 5781 5781 5780 5779 5779 5779 5779 5780 5780 5781 5782 5783 5784 5785 5786 5786 5787 5788 5789 5789 5790 5791 5791 5791 5792 5792 5792 5793 5792 5792 5792 5792 5792 5791 5791 5791
5784 5782 5780 5778 5777 5775 5774 5774 5773 5772 5772 5772 5771 5771 5772 5772 5773 5773 5775 5776 5777 5777 5778 5779 5780 5780 5781 5781 5782 5782 5783 5783 5783 5783 5783 5783 5783 5783 5783 5783 5782 5782 5781
5776 5774 5773 5771 5769 5768 5767 5766 5765 5764 5764 5764 5764 5764 5764 5764 5765 5765 5766 5768 5769 5770 5770 5771 5772 5772 5772 5773 5773 5773 5774 5774 5774 5774 5774 5774 5774 5774 5774 5774 5773 5773 5772
5769 5767 5765 5764 5762 5761 5760 5759 5758 5756 5756 5756 5756 5755 5756 5756 5757 5757 5758 5759 5760 5762 5762 5763 5763 5764 5764 5764 5764 5764 5764 5765 5765 5765 5764 5764 5764 5764 5764 5764 5764 5763 5763
5762 5760 5758 5756 5755 5754 5752 5751 5750 5749 5749 5748 5748 5748 5748 5749 5749 5750 5750 5751 5752 5753 5753 5754 5754 5755 5755 5755 5755 5755 5756 5756 5756 5756 5756 5755 5755 5755 5755 5755 5754 5754 5754
5754 5752 5750 5749 5748 5746 5745 5744 5743 5742 5741 5741 5741 5741 5741 5741 5741 5742 5742 5743 5744 5744 5745 5746 5746 5746 5747 5747 5747 5747 5747 5747 5747 5747 5747 5747 5746 5746 5746 5746 5745 5745 5745
5746 5745 5743 5741 5740 5739 5738 5737 5736 5735 5734 5734 5733 5733 5733 5733 5734 5734 5735 5735 5736 5737 5737 5738 5738 5738 5739 5739 5739 5739 5739 5739 5739 5739 5739 5739 5738 5738 5738 5738 5737 5737 5736
5739 5737 5736 5734 5733 5732 5731 5730 5729 5728 5727 5727 5726 5726 5726 5727 5727 5727 5728 5728 5729 5730 5730 5730 5731 5731 5731 5731 5732 5732 5732 5731 5731 5731 5731 5731 5730 5730 5730 5730 5729 5729 5728
5732 5731 5729 5728 5726 5725 5724 5723 5722 5722 5721 5720 5720 5720 5720 5720 5721 5721 5722 5722 5723 5723 5723 5724 5724 5724 5724 5725 5725 5725 5725 5724 5724 5724 5723 5724 5723 5723 5722 5722 5721 5720 5720
5727 5725 5723 5722 5720 5719 5718 5717 5716 5715 5715 5714 5714 5714 5714 5715 5715 5716 5716 5716 5717 5717 5718 5718 5718 5718 5718 5719 5719 5718 5718 5718 5718 5718 5717 5717 5716 5716 5715 5715 5714 5713 5713
5722 5720 5718 5717 5715 5713 5712 5711 5710 5710 5709 5709 5709 5709 5709 5709 5710 5710 5711 5711 5712 5712 5713 5713 5713 5713 5713 5714 5713 5713 5712 5712 5712 5712 5712 5711 5710 5710 5709 5709 5708 5707 5707
5717 5715 5714 5712 5711 5709 5708 5707 5706 5705 5705 5704 5704 5705 5705 5705 5706 5706 5707 5707 5708 5708 5708 5708 5708 5709 5709 5709 5709 5708 5708 5708 5707 5707 5706 5706 5706 5705 5704 5703 5703 5702 5702
5714 5712 5710 5709 5707 5706 5705 5704 5703 5702 5701 5701 5701 5701 5702 5702 5703 5703 5704 5704 5704 5704 5704 5704 5705 5705 5705 5705 5705 5705 5704 5704 5704 5703 5703 5702 5701 5701 5700 5699 5699 5698 5697
5711 5709 5708 5707 5705 5704 5702 5701 5700 5699 5699 5699 5699 5699 5699 5700 5700 5701 5701 5701 5702 5702 5702 5702 5702 5703 5703 5702 5702 5702 5702 5701 5701 5700 5699 5699 5698 5697 5696 5696 5695 5694 5693